Location: Azul
(36.7830°S, 59.8500°W)
Time: 03:48:14
(UTC-03:00)

ISS - Pass Details

Date: 20 July 2017
Orbit: 400 x 408 km, 51.6° (Epoch: 21 July)

Event Time Altitude Azimuth Distance (km) Brightness Sun altitude
Rises 18:53:54 0° 243° (WSW) 2,355 0.8 -9.8°
Reaches altitude 10° 18:56:21 10° 261° (W) 1,483 0.1 -10.3°
Maximum altitude 18:58:52 20° 310° (NW) 1,013 -0.8 -10.8°
Drops below altitude 10° 19:01:21 10° 359° (N) 1,464 -0.8 -11.2°
Sets 19:03:46 0° 17° (NNE) 2,313 0.0 -11.7°
